Weather History for Lexington, NE

Change the Weather History Date:

Saturday, April 27, 2013

  Actual Average Record
Temperature  
Mean Temperature 56 °F -  
Max Temperature 77 °F 61 °F 80 °F (2004)
Min Temperature 36 °F 38 °F 28 °F (2005)
Degree Days  
Heating Degree Days 8    
Growing Degree Days 6 (Base 50)    
Moisture  
Dew Point 41 °F    
Average Humidity 62    
Maximum Humidity 97    
Minimum Humidity 24    
Precipitation  
Precipitation 0.00 in - - ()
Sea Level Pressure  
Sea Level Pressure 30.05 in    
Wind  
Wind Speed 5 mph (South)    
Max Wind Speed 18 mph    
Max Gust Speed 24 mph    
Visibility 7 miles    
Events Fog    
Averages and records for this station are not official NWS values.
T = Trace of Precipitation, MM = Missing Value Source: NWS Daily Summary

Daily Weather History Graph

Daily Weather History Graph

Search for Another Location

Airport:

Trip Planner

Search our weather history database for the weather conditions in past years. The results will help you decide how hot, cold, wet, or windy it might be!

Date:

Astronomy

Apr. 27, 2013 Rise Set
Actual Time 6:42 AM CDT 8:31 PM CDT
Civil Twilight 6:13 AM CDT 9:01 PM CDT
Nautical Twilight 5:37 AM CDT 9:36 PM CDT
Astronomical Twilight 4:59 AM CDT 10:15 PM CDT
Moon 11:03 PM CDT (4/27) 8:01 AM CDT (4/27)
Length of Visible Light 14h 47m
Length of Day
13h 49m
Waning Gibbous, 95% of the Moon is Illuminated
Apr 27
Waning Gibbous
May 2
Last Quarter
May 9
New
May 17
First Quarter
May 24
Full

Hourly Weather History & Observations

Time (CDT) Temp. Windchill Dew Point Humidity Pressure Visibility Wind Dir Wind Speed Gust Speed Precip Events Conditions
12:15 AM 50.0 °F - 46.8 °F 89% 30.17 in 10.0 mi Calm Calm - N/A   Clear
12:35 AM 50.7 °F - 47.7 °F 89% 30.18 in 10.0 mi South 3.5 mph - N/A   Clear
12:55 AM 49.8 °F - 46.8 °F 89% 30.18 in 10.0 mi Calm Calm - N/A   Clear
1:15 AM 47.8 °F - 45.0 °F 90% 30.18 in 7.0 mi Calm Calm - N/A   Clear
1:35 AM 44.8 °F 42.4 °F 42.3 °F 91% 30.17 in 7.0 mi East 4.6 mph - N/A   Clear
1:55 AM 42.3 °F 40.5 °F 40.5 °F 93% 30.17 in 5.0 mi ESE 3.5 mph - N/A   Clear
2:15 AM 41.9 °F - 40.5 °F 95% 30.16 in 4.0 mi Calm Calm - N/A   Clear
2:35 AM 41.0 °F 39.0 °F 39.6 °F 95% 30.16 in 3.0 mi ENE 3.5 mph - N/A   Clear
2:55 AM 40.1 °F - 38.7 °F 95% 30.15 in 2.0 mi Calm Calm - N/A   Clear
3:15 AM 38.8 °F - 37.4 °F 95% 30.14 in 0.2 mi Calm Calm - N/A Fog Fog
3:35 AM 37.9 °F - 36.7 °F 95% 30.14 in 0.8 mi Calm Calm - N/A   Mist
3:55 AM 36.9 °F - 35.8 °F 96% 30.14 in 0.2 mi Calm Calm - N/A Fog Fog
4:15 AM 36.7 °F - 35.6 °F 96% 30.13 in 0.2 mi Calm Calm - N/A Fog Fog
4:35 AM 37.4 °F - 36.3 °F 96% 30.13 in 0.2 mi Calm Calm - N/A Fog Fog
4:55 AM 36.9 °F - 36.0 °F 97% 30.13 in 0.2 mi Calm Calm - N/A Fog Fog
5:15 AM 37.0 °F - 36.1 °F 97% 30.13 in 0.2 mi Calm Calm - N/A Fog Fog
6:35 AM 37.4 °F 34.9 °F 36.5 °F 97% 30.13 in 0.2 mi WNW 3.5 mph - N/A Fog Fog
6:55 AM 37.4 °F - 36.5 °F 97% 30.13 in 0.2 mi Calm Calm - N/A Fog Fog
7:15 AM 37.8 °F - 37.0 °F 97% 30.13 in 0.2 mi Calm Calm - N/A Fog Fog
7:35 AM 38.5 °F - 37.6 °F 97% 30.13 in 0.2 mi Calm Calm - N/A Fog Fog
7:55 AM 39.4 °F - 38.7 °F 97% 30.13 in 0.2 mi Calm Calm - N/A Fog Fog
8:15 AM 40.5 °F - 39.7 °F 97% 30.13 in 0.2 mi Calm Calm - N/A Fog Fog
8:35 AM 42.3 °F - 41.4 °F 97% 30.13 in 0.8 mi Calm Calm - N/A   Overcast
8:55 AM 44.8 °F - 43.9 °F 97% 30.13 in 3.0 mi Calm Calm - N/A   Scattered Clouds
9:15 AM 46.8 °F - 46.0 °F 97% 30.13 in 5.0 mi Calm Calm - N/A   Clear
9:35 AM 48.7 °F - 48.0 °F 97% 30.13 in 7.0 mi Calm Calm - N/A   Clear
9:55 AM 50.7 °F - 50.0 °F 97% 30.12 in 10.0 mi Calm Calm - N/A   Clear
10:15 AM 52.7 °F - 51.8 °F 97% 30.12 in 10.0 mi Calm Calm - N/A   Clear
10:35 AM 55.6 °F - 54.3 °F 96% 30.12 in 10.0 mi Calm Calm - N/A   Clear
10:55 AM 59.0 °F - 55.0 °F 87% 30.11 in 10.0 mi Calm Calm - N/A   Clear
11:15 AM 66.0 °F - 50.9 °F 58% 30.11 in 10.0 mi SSE 3.5 mph - N/A   Clear
11:35 AM 69.6 °F - 41.4 °F 36% 30.10 in 10.0 mi South 10.4 mph 16.1 mph N/A   Clear
11:55 AM 70.5 °F - 40.5 °F 34% 30.10 in 10.0 mi SSW 12.7 mph 18.4 mph N/A   Clear
12:15 PM 70.7 °F - 40.1 °F 33% 30.09 in 10.0 mi SSW 12.7 mph 17.3 mph N/A   Clear
12:35 PM 71.1 °F - 40.3 °F 33% 30.09 in 10.0 mi South 11.5 mph 16.1 mph N/A   Clear
12:55 PM 71.6 °F - 37.9 °F 29% 30.08 in 10.0 mi SW 10.4 mph 16.1 mph N/A   Clear
1:15 PM 72.0 °F - 39.2 °F 30% 30.07 in 10.0 mi SSW 9.2 mph 24.2 mph N/A   Clear
1:35 PM 72.5 °F - 39.0 °F 30% 30.06 in 10.0 mi SSW 12.7 mph 21.9 mph N/A   Clear
1:55 PM 72.9 °F - 38.8 °F 29% 30.04 in 10.0 mi South 12.7 mph 16.1 mph N/A   Clear
2:15 PM 73.8 °F - 40.5 °F 30% 30.04 in 10.0 mi SSW 12.7 mph 23.0 mph N/A   Clear
2:35 PM 73.8 °F - 40.3 °F 30% 30.03 in 10.0 mi SSW 15.0 mph - N/A   Clear
2:55 PM 75.0 °F - 40.5 °F 29% 30.02 in 10.0 mi SW 9.2 mph 16.1 mph N/A   Clear
3:15 PM 75.4 °F - 38.1 °F 26% 30.00 in 10.0 mi SSE 3.5 mph 19.6 mph N/A   Clear
3:35 PM 75.7 °F - 39.6 °F 27% 29.99 in 10.0 mi South 8.1 mph 18.4 mph N/A   Clear
3:55 PM 76.5 °F - 37.4 °F 24% 29.98 in 10.0 mi South 6.9 mph 19.6 mph N/A   Clear
4:15 PM 77.4 °F - 38.7 °F 25% 29.97 in 10.0 mi South 11.5 mph 19.6 mph N/A   Clear
4:35 PM 76.6 °F - 39.4 °F 26% 29.96 in 10.0 mi SSE 10.4 mph 18.4 mph N/A   Clear
4:55 PM 77.0 °F - 39.7 °F 26% 29.95 in 10.0 mi South 11.5 mph 17.3 mph N/A   Clear
5:15 PM 76.5 °F - 40.3 °F 27% 29.94 in 10.0 mi SE 16.1 mph - N/A   Clear
5:35 PM 77.2 °F - 40.8 °F 27% 29.93 in 10.0 mi South 13.8 mph - N/A   Clear
5:55 PM 76.3 °F - 40.3 °F 27% 29.93 in 10.0 mi South 13.8 mph 20.7 mph N/A   Clear
6:15 PM 75.7 °F - 40.6 °F 28% 29.93 in 10.0 mi SSE 12.7 mph - N/A   Clear
6:35 PM 74.8 °F - 41.2 °F 30% 29.92 in 10.0 mi SSE 18.4 mph 23.0 mph N/A   Clear
6:55 PM 73.8 °F - 41.5 °F 31% 29.92 in 10.0 mi South 16.1 mph 24.2 mph N/A   Clear
7:15 PM 72.9 °F - 41.4 °F 32% 29.92 in 10.0 mi South 17.3 mph 24.2 mph N/A   Clear
7:35 PM 71.4 °F - 41.4 °F 34% 29.92 in 10.0 mi SSE 16.1 mph 23.0 mph N/A   Clear
7:55 PM 69.6 °F - 41.5 °F 36% 29.92 in 10.0 mi SSE 15.0 mph - N/A   Clear
8:15 PM 67.6 °F - 41.4 °F 38% 29.92 in 10.0 mi South 13.8 mph - N/A   Clear
8:35 PM 65.5 °F - 42.3 °F 43% 29.92 in 10.0 mi SSE 11.5 mph - N/A   Clear
8:55 PM 63.5 °F - 42.3 °F 46% 29.92 in 10.0 mi SSE 11.5 mph - N/A   Clear
9:15 PM 61.9 °F - 42.1 °F 48% 29.92 in 10.0 mi SSE 11.5 mph - N/A   Clear
9:35 PM 61.0 °F - 42.1 °F 50% 29.92 in 10.0 mi SSE 12.7 mph - N/A   Clear
9:55 PM 60.3 °F - 42.1 °F 51% 29.92 in 10.0 mi SSE 13.8 mph - N/A   Clear
10:15 PM 60.3 °F - 41.9 °F 51% 29.93 in 10.0 mi South 16.1 mph - N/A   Clear
10:35 PM 60.1 °F - 41.9 °F 51% 29.93 in 10.0 mi South 16.1 mph - N/A   Clear
10:55 PM 59.0 °F - 41.7 °F 53% 29.93 in 10.0 mi South 16.1 mph 20.7 mph N/A   Clear
11:15 PM 59.0 °F - 41.9 °F 53% 29.93 in 10.0 mi South 15.0 mph 19.6 mph N/A   Clear
11:35 PM 58.1 °F - 43.0 °F 57% 29.93 in 10.0 mi South 16.1 mph 19.6 mph N/A   Clear
11:55 PM 57.9 °F - 43.2 °F 58% 29.92 in 10.0 mi South 18.4 mph 24.2 mph N/A   Clear